This is the latest recevied weather packets stored in our database for station/object ES2ADF-5. If no packets are shown the sender has not sent any weather packets the latest 10 day(s).
| Time | Temp. | Humidity | Pressure | Rain* | Wind** | Luminosity | Snow |
|---|---|---|---|---|---|---|---|
| 1777869528 | 12.22° C | 68% | 1004 hPa | 0 mm | - | - | - |
| 1777869228 | 12.78° C | 70% | 1004.1 hPa | 0 mm | - | - | - |
| 1777868928 | 11.11° C | 78% | 1004.1 hPa | 0 mm | - | - | - |
| 1777868627 | 10° C | 78% | 1004.2 hPa | 0 mm | - | - | - |
| 1777868327 | 8.89° C | 79% | 1004.6 hPa | 0 mm | - | - | - |
| 1777868027 | 8.89° C | 79% | 1004.5 hPa | 0 mm | - | - | - |
| 1777867726 | 8.33° C | 80% | 1004.6 hPa | 0 mm | - | - | - |
| 1777867426 | 8.33° C | 81% | 1004.6 hPa | 0 mm | - | - | - |
| 1777867126 | 7.78° C | 82% | 1004.6 hPa | 0 mm | - | - | - |
| 1777866825 | 7.22° C | 82% | 1004.6 hPa | 0 mm | - | - | - |
| 1777866525 | 7.22° C | 82% | 1004.5 hPa | 0 mm | - | - | - |
| 1777866225 | 6.67° C | 81% | 1004.6 hPa | 0 mm | - | - | - |
| 1777865925 | 6.67° C | 81% | 1004.6 hPa | 0 mm | - | - | - |
| 1777865624 | 6.67° C | 81% | 1004.8 hPa | 0 mm | - | - | - |
| 1777865324 | 6.67° C | 81% | 1004.9 hPa | 0 mm | - | - | - |
| 1777865024 | 6.67° C | 81% | 1004.9 hPa | 0 mm | - | - | - |
| 1777864723 | 6.67° C | 81% | 1005 hPa | 0 mm | - | - | - |
| 1777864423 | 6.67° C | 81% | 1005.1 hPa | 0 mm | - | - | - |
| 1777864123 | 6.67° C | 82% | 1005.1 hPa | 0 mm | - | - | - |
| 1777863823 | 6.67° C | 82% | 1005 hPa | 0 mm | - | - | - |
| 1777863522 | 6.67° C | 82% | 1005 hPa | 0 mm | - | - | - |
| 1777863222 | 6.11° C | 82% | 1005.2 hPa | 0 mm | - | - | - |
| 1777862922 | 6.11° C | 82% | 1005.1 hPa | 0 mm | - | - | - |
| 1777862621 | 6.11° C | 81% | 1005.1 hPa | 0 mm | - | - | - |
| 1777862321 | 6.67° C | 81% | 1005.1 hPa | 0 mm | - | - | - |
* Rain latest hour (hover to see other rain measurements)
** Current wind speed in m/s (hover to see current wind gust speed)